EZY534 EGAC-EGGP

Flight info

Callsign EZY534
Flight time 0h 30m
Altitude 19000
Route DUFFY L15 PEPOD Q38 SOSIM L28 PENIL
Aircraft A320/M-SDE2E3FGHIJ1RWXYZ/LB1

Departure

Time 2026-04-24 20:25
Airport George Best Belfast City Airport (EGAC)

Arrival

Time 2026-04-24 20:56
Airport Liverpool John Lennon Airport (EGGP)
Time Latitude Longitude Altitude Speed Heading
2026-04-24 19:58 54.61433 -5.87219 24 ft 0 kts 124°
2026-04-24 20:17 54.61435 -5.87224 23 ft 3 kts 124°
2026-04-24 20:17 54.61472 -5.87282 23 ft 4 kts 183°
2026-04-24 20:17 54.61489 -5.87274 24 ft 1 kts 214°
2026-04-24 20:18 54.61492 -5.87271 26 ft 0 kts 214°
2026-04-24 20:21 54.61466 -5.87301 27 ft 11 kts 214°
2026-04-24 20:21 54.61405 -5.87390 23 ft 11 kts 229°
2026-04-24 20:21 54.61357 -5.87477 23 ft 9 kts 214°
2026-04-24 20:21 54.61309 -5.87537 23 ft 8 kts 216°
2026-04-24 20:22 54.61265 -5.87592 23 ft 8 kts 216°
2026-04-24 20:22 54.61222 -5.87639 23 ft 7 kts 211°
2026-04-24 20:22 54.61182 -5.87685 23 ft 9 kts 214°
2026-04-24 20:22 54.61104 -5.87781 23 ft 16 kts 220°
2026-04-24 20:23 54.61083 -5.87837 23 ft 0 kts 251°
2026-04-24 20:23 54.61081 -5.87848 25 ft 2 kts 256°
2026-04-24 20:24 54.61082 -5.87876 23 ft 5 kts 279°
2026-04-24 20:24 54.61110 -5.87970 22 ft 7 kts 298°
2026-04-24 20:24 54.61135 -5.88026 22 ft 5 kts 318°
2026-04-24 20:24 54.61156 -5.88035 22 ft 2 kts 30°
2026-04-24 20:25 54.61172 -5.88016 23 ft 10 kts 35°
2026-04-24 20:25 54.61470 -5.87674 20 ft 92 kts 35°
2026-04-24 20:25 54.62164 -5.86829 87 ft 146 kts 35°
2026-04-24 20:25 54.63009 -5.85728 641 ft 153 kts 38°
2026-04-24 20:26 54.63836 -5.84579 1281 ft 155 kts 40°
2026-04-24 20:26 54.64561 -5.83078 1703 ft 176 kts 71°
2026-04-24 20:26 54.64538 -5.80921 2077 ft 193 kts 116°
2026-04-24 20:26 54.63635 -5.79388 2311 ft 215 kts 154°
2026-04-24 20:27 54.62146 -5.78474 2745 ft 240 kts 164°
2026-04-24 20:27 54.60464 -5.77746 3391 ft 255 kts 166°
2026-04-24 20:27 54.58730 -5.76983 4278 ft 260 kts 164°
2026-04-24 20:27 54.56982 -5.76112 5194 ft 264 kts 162°
2026-04-24 20:28 54.55219 -5.75128 6100 ft 268 kts 160°
2026-04-24 20:28 54.53450 -5.74063 6995 ft 271 kts 159°
2026-04-24 20:28 54.52269 -5.73323 7545 ft 274 kts 159°
2026-04-24 20:28 54.50474 -5.72170 8406 ft 277 kts 158°
2026-04-24 20:29 54.48653 -5.70982 9258 ft 281 kts 158°
2026-04-24 20:29 54.46209 -5.69376 10365 ft 287 kts 158°
2026-04-24 20:29 54.44288 -5.68111 10733 ft 308 kts 158°
2026-04-24 20:29 54.42219 -5.66748 11147 ft 325 kts 158°
2026-04-24 20:30 54.40091 -5.65352 11860 ft 330 kts 158°
2026-04-24 20:30 54.37931 -5.63941 12626 ft 334 kts 158°
2026-04-24 20:30 54.36455 -5.62982 13134 ft 337 kts 158°
2026-04-24 20:30 54.34276 -5.61567 13801 ft 344 kts 158°
2026-04-24 20:31 54.31971 -5.60070 13942 ft 365 kts 158°
2026-04-24 20:31 54.29578 -5.58346 14272 ft 377 kts 151°
2026-04-24 20:31 54.27362 -5.55908 14830 ft 381 kts 141°
2026-04-24 20:31 54.25441 -5.52780 15431 ft 383 kts 130°
2026-04-24 20:32 54.23833 -5.49125 16018 ft 386 kts 125°
2026-04-24 20:32 54.22258 -5.45381 16606 ft 389 kts 126°
2026-04-24 20:32 54.20669 -5.41620 17183 ft 392 kts 126°
2026-04-24 20:32 54.19063 -5.37831 17762 ft 395 kts 126°
2026-04-24 20:33 54.17443 -5.34012 18340 ft 398 kts 126°
2026-04-24 20:33 54.15810 -5.30171 18836 ft 402 kts 126°
2026-04-24 20:33 54.14162 -5.26301 19154 ft 404 kts 127°
2026-04-24 20:33 54.12502 -5.22406 19239 ft 411 kts 126°
2026-04-24 20:34 54.10814 -5.18450 19254 ft 426 kts 126°
2026-04-24 20:34 54.09050 -5.14321 19249 ft 434 kts 126°
2026-04-24 20:34 54.07362 -5.10377 19249 ft 436 kts 127°
2026-04-24 20:34 54.05562 -5.06177 19242 ft 437 kts 127°
2026-04-24 20:35 54.03770 -5.02000 19248 ft 437 kts 127°
2026-04-24 20:35 54.01975 -4.97818 19245 ft 437 kts 127°
2026-04-24 20:35 54.00180 -4.93644 19246 ft 437 kts 127°
2026-04-24 20:35 53.98381 -4.89478 19245 ft 437 kts 127°
2026-04-24 20:36 53.96575 -4.85305 19246 ft 438 kts 127°
2026-04-24 20:36 53.94794 -4.81203 19245 ft 438 kts 127°
2026-04-24 20:36 53.92988 -4.77050 19245 ft 438 kts 127°
2026-04-24 20:36 53.91178 -4.72887 19244 ft 438 kts 127°
2026-04-24 20:37 53.89371 -4.68734 19245 ft 438 kts 127°
2026-04-24 20:37 53.87559 -4.64572 19245 ft 438 kts 127°
2026-04-24 20:37 53.85749 -4.60423 19246 ft 438 kts 127°
2026-04-24 20:37 53.83932 -4.56272 19244 ft 438 kts 127°
2026-04-24 20:38 53.82171 -4.52070 19238 ft 438 kts 122°
2026-04-24 20:38 53.80771 -4.47499 19236 ft 439 kts 113°
2026-04-24 20:38 53.79676 -4.42773 19234 ft 431 kts 111°
2026-04-24 20:38 53.78612 -4.38165 19240 ft 413 kts 112°
2026-04-24 20:39 53.77566 -4.33675 19243 ft 409 kts 112°
2026-04-24 20:39 53.76522 -4.29214 19242 ft 407 kts 112°
2026-04-24 20:39 53.75483 -4.24788 18569 ft 403 kts 112°
2026-04-24 20:39 53.74437 -4.20337 17010 ft 414 kts 112°
2026-04-24 20:40 53.73367 -4.15800 15968 ft 416 kts 112°
2026-04-24 20:40 53.72297 -4.11272 14978 ft 413 kts 111°
2026-04-24 20:40 53.71237 -4.06797 14205 ft 409 kts 111°
2026-04-24 20:40 53.70182 -4.02353 13439 ft 406 kts 111°
2026-04-24 20:41 53.69148 -3.97999 12887 ft 405 kts 111°
2026-04-24 20:41 53.68109 -3.93611 12373 ft 402 kts 111°
2026-04-24 20:41 53.67077 -3.89245 11866 ft 399 kts 111°
2026-04-24 20:41 53.66050 -3.84906 11369 ft 397 kts 111°
2026-04-24 20:42 53.65026 -3.80613 10883 ft 391 kts 111°
2026-04-24 20:42 53.64017 -3.76406 10388 ft 382 kts 111°
2026-04-24 20:42 53.63029 -3.72304 9904 ft 375 kts 111°
2026-04-24 20:42 53.61995 -3.68322 9379 ft 367 kts 118°
2026-04-24 20:43 53.60571 -3.64809 8862 ft 361 kts 130°
2026-04-24 20:43 53.58841 -3.61880 8362 ft 354 kts 136°
2026-04-24 20:43 53.57079 -3.59039 7866 ft 348 kts 136°
2026-04-24 20:43 53.55350 -3.56241 7375 ft 342 kts 136°
2026-04-24 20:44 53.53649 -3.53486 6890 ft 337 kts 136°
2026-04-24 20:44 53.51971 -3.50768 6393 ft 333 kts 136°
2026-04-24 20:44 53.50315 -3.48096 5884 ft 328 kts 136°
2026-04-24 20:44 53.48718 -3.45402 5400 ft 323 kts 129°
2026-04-24 20:45 53.47555 -3.42275 5215 ft 309 kts 116°
2026-04-24 20:45 53.46643 -3.39087 4982 ft 298 kts 116°
2026-04-24 20:45 53.45753 -3.36007 4730 ft 288 kts 116°
2026-04-24 20:45 53.44901 -3.33071 4483 ft 279 kts 116°
2026-04-24 20:46 53.44062 -3.30194 4233 ft 271 kts 118°
2026-04-24 20:46 53.42972 -3.27704 3976 ft 261 kts 137°
2026-04-24 20:46 53.41594 -3.25802 3729 ft 253 kts 141°
2026-04-24 20:46 53.40238 -3.23978 3481 ft 246 kts 141°
2026-04-24 20:47 53.38923 -3.22199 3226 ft 240 kts 141°
2026-04-24 20:47 53.37644 -3.20473 3045 ft 231 kts 141°
2026-04-24 20:47 53.36404 -3.18801 3001 ft 228 kts 141°
2026-04-24 20:47 53.35167 -3.17134 3005 ft 228 kts 141°
2026-04-24 20:48 53.33933 -3.15467 3009 ft 228 kts 141°
2026-04-24 20:48 53.32716 -3.13824 3004 ft 228 kts 141°
2026-04-24 20:48 53.31414 -3.12272 2984 ft 227 kts 156°
2026-04-24 20:48 53.29891 -3.11825 2991 ft 228 kts 186°
2026-04-24 20:49 53.28418 -3.12754 2988 ft 231 kts 216°
2026-04-24 20:49 53.27427 -3.14853 2985 ft 234 kts 247°
2026-04-24 20:49 53.27231 -3.17545 2984 ft 238 kts 279°
2026-04-24 20:49 53.27921 -3.20024 2987 ft 238 kts 312°
2026-04-24 20:50 53.29179 -3.21822 2992 ft 242 kts 321°
2026-04-24 20:50 53.30568 -3.23681 2992 ft 264 kts 321°
2026-04-24 20:50 53.32011 -3.25623 2986 ft 267 kts 321°
2026-04-24 20:50 53.33478 -3.27539 2989 ft 268 kts 328°
2026-04-24 20:51 53.35211 -3.28393 2993 ft 266 kts
2026-04-24 20:51 53.36917 -3.27423 3001 ft 257 kts 40°
2026-04-24 20:51 53.37904 -3.25150 2993 ft 233 kts 74°
2026-04-24 20:51 53.38020 -3.22542 3002 ft 224 kts 104°
2026-04-24 20:52 53.37360 -3.20228 3004 ft 222 kts 132°
2026-04-24 20:52 53.36199 -3.18525 3002 ft 222 kts 142°
2026-04-24 20:52 53.34993 -3.16901 3005 ft 223 kts 141°
2026-04-24 20:52 53.33788 -3.15275 3002 ft 223 kts 141°
2026-04-24 20:53 53.32771 -3.13384 3005 ft 223 kts 121°
2026-04-24 20:53 53.32242 -3.10949 3007 ft 225 kts 99°
2026-04-24 20:53 53.32259 -3.08332 2968 ft 228 kts 86°
2026-04-24 20:53 53.32391 -3.05635 2438 ft 236 kts 87°
2026-04-24 20:54 53.32522 -3.02891 2059 ft 236 kts 87°
2026-04-24 20:54 53.32651 -3.00167 1726 ft 232 kts 87°
2026-04-24 20:54 53.32774 -2.97607 1424 ft 209 kts 87°
2026-04-24 20:54 53.32884 -2.95280 1150 ft 193 kts 87°
2026-04-24 20:55 53.32985 -2.93128 882 ft 180 kts 87°
2026-04-24 20:55 53.33079 -2.91100 671 ft 169 kts 86°
2026-04-24 20:55 53.33167 -2.89231 466 ft 152 kts 86°
2026-04-24 20:55 53.33243 -2.87539 216 ft 142 kts 86°
2026-04-24 20:56 53.33325 -2.85933 73 ft 131 kts 86°
2026-04-24 20:56 53.33382 -2.84645 69 ft 90 kts 86°
2026-04-24 20:56 53.33411 -2.83890 89 ft 40 kts 84°
2026-04-24 20:56 53.33469 -2.83612 86 ft 16 kts 13°
2026-04-24 20:57 53.33527 -2.83644 88 ft 5 kts 338°
2026-04-24 20:57 53.33560 -2.83656 87 ft 4 kts 348°
2026-04-24 20:57 53.33575 -2.83676 88 ft 2 kts 286°
2026-04-24 20:57 53.33580 -2.83707 86 ft 5 kts 279°
2026-04-24 20:58 53.33584 -2.83812 86 ft 13 kts 264°
2026-04-24 20:58 53.33574 -2.83976 84 ft 14 kts 264°
2026-04-24 20:58 53.33565 -2.84131 84 ft 13 kts 264°
2026-04-24 20:58 53.33557 -2.84274 83 ft 12 kts 264°
2026-04-24 20:59 53.33553 -2.84410 81 ft 11 kts 268°
2026-04-24 20:59 53.33549 -2.84572 80 ft 16 kts 268°
2026-04-24 20:59 53.33539 -2.84749 82 ft 15 kts 264°
2026-04-24 20:59 53.33529 -2.84920 78 ft 14 kts 264°
2026-04-24 21:00 53.33554 -2.85061 75 ft 12 kts 330°
2026-04-24 21:00 53.33606 -2.85068 78 ft 5 kts 357°
2026-04-24 21:00 53.33630 -2.85081 73 ft 3 kts 312°
2026-04-24 21:00 53.33633 -2.85109 74 ft 3 kts 279°
2026-04-24 21:01 53.33634 -2.85137 72 ft 2 kts 269°
2026-04-24 21:01 53.33634 -2.85165 74 ft 2 kts 268°
2026-04-24 21:01 53.33633 -2.85193 72 ft 2 kts 266°